Regional Weather Roundup
Issued by NWS

Home | Current Version | Previous Version | Graphics & Text | Print | Product List | Glossary On
Versions: 1 2 3 4 5 6 7 8 9 10 11 12 13 14 15 16 17 18 19 20 21 22 23 24 25 26 27 28 29 30 31 32 33 34 35 36 37 38 39 40 41 42 43 44 45 46 47 48 49 50
000
ASUS43 KMKX 050800
RWRWI

WISCONSIN REGIONAL WEATHER ROUNDUP
NATIONAL WEATHER SERVICE MILWAUKEE/SULLIVAN WI
200 AM CST MON DEC 05 2016

NOTE: "FAIR" INDICATES FEW OR NO CLOUDS BELOW 12,000 FEET WITH NO
SIGNIFICANT WEATHER AND/OR OBSTRUCTIONS TO VISIBILITY.

WIZ001-002-006>008-014>016-023>028-050900-
NORTHWEST WISCONSIN

CITY           SKY/WX    TMP DP  RH WIND       PRES   REMARKS
SUPERIOR ARPT  CLOUDY    34  29  83 W13G20    29.71R WCI  25
ASHLAND        CLOUDY    34  29  82 W10       29.72R WCI  26
HAYWARD        CLOUDY    34  29  82 SW8       29.74R WCI  27
SIREN          CLOUDY    34  30  86 SW8       29.76R WCI  27
CUMBERLAND     CLOUDY    32  30  93 W8        29.76R WCI  25
RICE LAKE      CLOUDY    33  29  85 SW7       29.78R WCI  27
CHETEK         CLOUDY    33  30  88 SW5       29.77R WCI  28
LADYSMITH      CLOUDY    33  31  90 SW7       29.76S WCI  27
EAU CLAIRE     NOT AVBL
MENOMONIE      CLEAR     32  31  95 SW7       29.80R WCI  26
NEW RICHMOND   CLEAR     31  29  95 SW8       29.79R WCI  23
OSCEOLA        CLEAR     31  29  94 SW5       29.81S WCI  26
$$

WIZ003>005-009-010-017-018-050900-
NORTH CENTRAL WISCONSIN

CITY           SKY/WX    TMP DP  RH WIND       PRES   REMARKS
MANITOWISH WTR MIX PCPN  31  31 100 W9        29.69R WCI  23
ARBOR VITAE    CLOUDY    34  32  94 W9        29.70R WCI  27
WOODRUFF       CLOUDY    34  32  94 W9        29.70R WCI  27
RHINELANDER    MIX PCPN  33  31  92 W13       29.72R WCI  24
EAGLE RIVER    MIX PCPN  31  31 100 SW9       29.69R WCI  23
LAND O LAKES   CLOUDY    32  32 100 SW6       29.69R FOG     WCI  26
PHILLIPS       CLOUDY    32  30  94 SW8G17    29.72R WCI  24
TOMAHAWK       CLOUDY    32  29  90 W6        29.73R WCI  26
MEDFORD        CLOUDY    32  29  88 W10       29.75R WCI  24
MERRILL        CLOUDY    33  32  94 W9        29.75R WCI  25
$$

WIZ029-030-035-036-043>047-050900-
CENTRAL WISCONSIN

CITY           SKY/WX    TMP DP  RH WIND       PRES   REMARKS
WAUSAU         CLOUDY    33  30  88 W10       29.76R WCI  25
MOSINEE        CLOUDY    32  32 100 SW10      29.77S WCI  24
MARSHFIELD     CLOUDY    33  31  92 W9        29.79R WCI  25
STEVENS POINT  CLOUDY    32  32 100 SW8       29.80R WCI  24
WAUPACA        CLOUDY    35  32  90 CALM      29.81R
WAUTOMA        CLOUDY    33  32  96 SW9       29.85R WCI  25
WISC RAPIDS    CLOUDY    33  33 100 SW8       29.83R WCI  26
CAMP DOUGLAS   CLOUDY    34  32  93 SW13      29.85R WCI  25
$$

WIZ011>013-019>022-031-037>040-048>050-050900-
NORTHEAST WISCONSIN

CITY           SKY/WX    TMP DP  RH WIND       PRES   REMARKS
ANTIGO         CLOUDY    32  31  96 W10G16    29.74R WCI  23
SHAWANO        CLOUDY    34  32  93 SW3       29.79R
OCONTO         CLOUDY    32  31  95 SW6       29.79S WCI  26
STURGEON BAY   CLOUDY    33  31  92 SW10      29.79R WCI  25
GREEN BAY      CLOUDY    35  33  92 SW8       29.82R WCI  29
MANITOWOC      NOT AVBL
APPLETON       CLOUDY    32  32 100 SW9       29.80S WCI  24
CLINTONVILLE   CLOUDY    32  32 100 SW7       29.79S WCI  26
OSHKOSH        CLOUDY    34  31  88 SW8       29.84R WCI  27
$$

WIZ032>034-041-042-053>061-050900-
SOUTHWEST WISCONSIN

CITY           SKY/WX    TMP DP  RH WIND       PRES   REMARKS
LA CROSSE      CLOUDY    36  33  89 SW9       29.87R WCI  29
SPARTA         CLOUDY    34  33  96 SW5       29.85R WCI  30
VIROQUA        CLOUDY    32  32 100 SW14      29.86R WCI  22
BOSCOBEL       CLOUDY    35  33  92 SW6       29.91R WCI  30
PRAIRIE DU CHI CLOUDY    35  32  90 SW5       29.91R WCI  31
PLATTEVILLE    CLOUDY    33  33 100 SW7       29.91R WCI  26
$$

WIZ056-057-062-063-064-067-068-050900-
SOUTH CENTRAL WISCONSIN

CITY           SKY/WX    TMP DP  RH WIND       PRES   REMARKS
REEDSBURG      CLOUDY    32  32 100 SW10      29.87R WCI  24
BARABOO/DELLS  CLOUDY    32  31  98 SW12G17   29.87R FOG     WCI  23
LONE ROCK      NOT AVBL
MINERAL POINT  FOG       34  34 100 SW9       29.90R VSB 1   WCI  26
MADISON        CLOUDY    33  30  88 W8        29.89R WCI  26
MIDDLETON      CLOUDY    34  32  92 W12G20    29.89R WCI  26
WATERTOWN      CLOUDY    32  32  99 SW7       29.89R WCI  26
MONROE         CLOUDY    32  32 100 SW12      29.91R FOG     WCI  23
JANESVILLE     CLOUDY    34  32  93 W6        29.92S WCI  29
$$

WIZ051-052-058>065-066-070>072-050900-
SOUTHEAST WISCONSIN

CITY           SKY/WX    TMP DP  RH WIND       PRES   REMARKS
MILWAUKEE      CLOUDY    34  30  85 W9        29.91R WCI  27
WAUKESHA       CLOUDY    32  30  93 SW7       29.90R WCI  26
MILWAUKEE/TIMM CLOUDY    32  30  93 W8        29.89R WCI  25
RACINE         CLOUDY    33  30  88 W8        29.93R WCI  26
BURLINGTON     CLOUDY    32  31  96 CALM      29.92R
KENOSHA        CLOUDY    33  30  88 W13       29.92R WCI  24
FOND DU LAC    CLOUDY    34  29  82 SW9       29.86R WCI  27
SHEBOYGAN      CLOUDY    33  30  88 W14       29.86R WCI  23
WEST BEND      CLOUDY    32  32 100 W9        29.86R WCI  24
JUNEAU         CLOUDY    32  30  93 SW13      29.89R WCI  22
$$

LSZ147-162-050900-
LAKE SUPERIOR

STATION/POSITION TIME  TEMP    WIND        PRES    WAVE
                       AIR SEA DIR/SP/G            HT/PER
                 (UTC) (F)     (DEG/KT/KT) (MB)    (FT/S)
DEVILS ISLAND    0700   35     230/ 23/ 27 1004.7R
PORT WING        0740   35     230/ 11/ 15 1006.1R
SAXON HARBOR     0740   36     220/  5/ 12 1006.1R
$$

LMZ867-665-643>646-050900-
LAKE MICHIGAN

STATION/POSITION TIME  TEMP    WIND        PRES    WAVE
                       AIR SEA DIR/SP/G            HT/PER
                 (UTC) (F)     (DEG/KT/KT) (MB)    (FT/S)
CHAMBERS ISLAND  0740   34     210/  9/ 14 1007.8S
NORTHPORT PIER   0740   34     240/  4/ 12 1008.1R
SISTER BAY       0708   36     270/ 18/ 21   N/A
ALGOMA LAKESHORE 0721          260/ 10/ 13   N/A
KEWAUNEE LAKESHO 0730   33     240/  5/  9 1009.1R
SHEBOYGAN LAKESH 0700   33     230/ 11/ 13 1010.9S
PORT WASHINGTON  0740   34     260/  9/ 14 1012.5S
MILWAUKEE LAKESH 0730   35     240/  8/ 10   N/A
KENOSHA   LAKESH 0700   33     270/ 12/ 16 1012.9
$$

TC  - TEMPERATURE IN CELSIUS
VSB - VISIBILITY IN STATUTE MILES
WCI - WIND CHILL INDEX
HX  - HEAT INDEX




USA.gov is the U.S. government's official web portal to all federal, state and local government web resources and services.